Location: Alulod
(14.2076°N, 120.8898°E)
Time: 22:52:01
(UTC+00:00)

Daily predictions for brighter satellites

Satellite Brightness Start Highest point End
(mag) Time Altitude Azimuth Time Altitude Azimuth Time Altitude Azimuth
USA 238 DEB 4.4 19:33:15 58° S 19:33:15 58° S 19:39:36 10° SSE
USA 238 4.4 19:33:19 59° S 19:33:19 59° S 19:39:43 10° SSE
Atlas Centaur 2 4.2 19:39:12 25° S 19:39:12 25° S 19:43:51 10° SSE
ARIANE 5 R/B 4.3 19:58:06 11° S 19:58:06 11° S 19:58:38 10° S
Cosmos 1980 Rocket 2.5 19:59:10 62° E 19:59:10 62° E 20:04:30 10° SSE
Cosmos 2098 Rocket 3.6 20:11:10 71° S 20:11:10 71° S 20:15:38 10° S
Cosmos 2279 Rocket 3.8 20:16:30 69° WNW 20:16:44 69° W 20:22:55 10° S
ATLAS 2AS CENTAUR R/B 2.8 20:10:40 10° SSW 20:17:54 78° ESE 20:24:57 10° NNE
Cosmos 967 Rocket 4.5 20:18:46 44° NNW 20:20:58 80° ENE 20:27:21 10° SSE
GPS 2-15 Rocket1 3.6 20:28:49 46° NNE 20:28:49 46° NNE 20:32:41 10° ENE
Cosmos 1833 4.1 20:23:12 10° SSW 20:28:48 86° ESE 20:34:27 10° NNE
Cosmos 2026 Rocket 4.0 20:23:18 10° S 20:29:20 77° E 20:35:22 10° N
SL-16 R/B 2.7 20:25:48 10° S 20:31:48 49° WSW 20:32:39 46° WNW
FengYun 1-2 T 4.1 20:29:40 10° N 20:35:17 74° WNW 20:40:52 10° SSW
Cosmos 1606 Rocket 3.8 20:35:29 24° N 20:37:59 67° E 20:42:16 10° SSE
CZ-4 R/B 3.9 20:41:06 10° NNE 20:45:42 75° ESE 20:50:20 10° S
SL-24 R/B 4.0 20:45:05 10° NNE 20:49:25 76° E 20:53:16 10° S
ARIANE 6 FM1 Upper Stage 4.2 20:46:42 10° S 20:50:35 37° ESE 20:54:23 10° NE
SJ-11-01 4.4 20:48:52 21° NNW 20:51:40 47° WNW 20:56:06 10° SSW
Chandra Rocket (1) 4.1 20:52:18 18° WSW 20:55:01 27° SSW 21:04:41 10° SE
Cosmos 44 3.2 20:54:43 10° SSW 20:58:59 74° ESE 21:03:28 10° NNE
NOAA 12 3.9 20:53:51 10° N 20:59:04 73° WNW 21:04:14 10° SSW
Delta 2 Rocket 4.4 20:59:18 19° N 21:00:13 22° NNE 21:02:40 10° E
Cosmos 1726 Rocket 3.3 20:56:29 12° N 21:00:19 88° W 21:04:21 10° S
Cosmos 1092 Rocket 4.0 20:55:16 10° SSW 21:01:29 60° W 21:07:38 10° N
Cosmos 1626 Rocket 3.9 20:58:15 10° S 21:02:39 68° E 21:07:01 10° N
USA 59 Rocket 1.0 20:59:32 14° NNW 21:03:53 76° ENE 21:11:07 10° SSE
Aurora 2 Rocket 3.4 21:01:18 22° W 21:05:51 57° NNW 21:11:02 10° ENE
Cosmos 1898 Rocket 3.6 21:02:50 17° NNW 21:06:43 56° WSW 21:11:53 10° S
NOSS 2-1 (D) 4.5 21:02:19 13° NNW 21:06:51 73° ENE 21:13:56 10° SSE
CZ-3 R/B 2.6 20:54:28 21° WNW 21:07:37 84° NNE 21:13:44 10° ESE
Cosmos 372 Rocket 4.4 21:05:55 23° NW 21:08:28 38° W 21:13:10 10° S
Cosmos 1743 3.7 21:06:47 10° SSE 21:09:48 40° E 21:12:51 10° NNE
Cosmos 546 4.5 21:11:44 24° NW 21:13:49 70° SW 21:17:32 10° SSE
Cosmos 1937 Rocket 3.6 21:16:54 10° NNW 21:21:54 55° WSW 21:26:56 10° S
IRS-1D 4.2 21:18:09 10° NNW 21:22:40 32° WNW 21:27:17 10° SW
NOSS 2-1 (E) 4.3 21:19:39 10° NNW 21:24:37 85° ENE 21:31:44 10° SSE
Cosmos 858 Rocket 4.4 21:20:21 10° NNW 21:25:32 81° WSW 21:30:44 10° S
Cosmos 2151 3.5 21:22:42 10° S 21:26:41 58° E 21:30:41 10° NNE
Cosmos 2237 4.4 21:21:49 10° NNW 21:27:18 52° WSW 21:32:47 10° S
SL-16 R/B 2.4 21:22:07 10° NNW 21:27:45 74° ENE 21:33:22 10° SSE
Tiangong -0.9 21:25:42 11° NNW 21:28:28 35° NE 21:31:28 10° ESE
Stardust Del rocket 3.8 21:28:04 15° WNW 21:30:47 30° NNW 21:33:19 10° NE
NOSS 3-1 (C) 4.5 21:22:53 10° NNW 21:31:36 89° WSW 21:41:19 10° SSE
Meteor 2-20 Rocket 4.4 21:28:02 10° N 21:33:45 82° E 21:39:34 10° S
deb Centaur AC-2 3.9 21:30:29 13° WNW 21:34:14 86° SSW 21:38:39 10° ESE
Meteor 2-2 Rocket 4.4 21:31:15 10° N 21:37:04 87° W 21:43:01 10° S
Cosmos 405 Rocket 3.6 21:35:34 10° SW 21:38:00 20° W 21:40:26 10° NNW
COSMOS 2455 3.6 21:33:01 10° NW 21:38:18 33° WSW 21:43:35 10° S
GPS 2-17 Rocket1 4.1 21:35:07 10° SW 21:39:31 45° SSE 21:43:54 10° E
ATLAS CENTAUR R/B 4.1 21:39:40 10° SSE 21:42:04 19° ESE 21:44:30 10° ENE
Cosmos 1602 Rocket 3.5 21:37:43 10° S 21:42:08 77° W 21:46:33 10° N
IUS-15 SRM-1 2.7 21:41:35 10° WSW 21:46:00 62° NNW 21:48:03 10° ENE
IRIDIUM 104 4.4 21:41:15 10° S 21:46:23 61° W 21:51:31 10° N
Meteor 1-26 Rocket 4.3 21:40:48 10° NNW 21:46:29 66° W 21:52:20 10° S
Cosmos 836 Rocket 4.4 21:42:03 10° SSW 21:47:11 71° WNW 21:52:19 10° N
Okean 1-7 Rocket 3.7 21:46:24 10° S 21:50:55 84° E 21:55:24 10° N
Cosmos 773 Rocket 3.9 21:47:02 10° SSW 21:52:08 84° WNW 21:57:15 10° NNE
Meteor 1-20 Rocket 4.3 21:47:03 10° S 21:52:47 87° W 21:58:24 10° N
Centaur AC-146 4.2 21:27:26 10° WNW 22:02:42 62° SSW 22:07:11 10° SE
